Pittsburgh, PA

4:45 AM EDT on March 29, 2017 (GMT -0400)
Pittsburgh International

Weather History for KPIT - September, 2014

Change the Weather History Date:

Monday, September 29, 2014

  Actual Average Record
Temperature  
Mean Temperature 67 °F 59 °F  
Max Temperature 80 °F 69 °F 89 °F (1959)
Min Temperature 53 °F 49 °F 35 °F (1969)
Degree Days  
Heating Degree Days 0 7  
Month to date heating degree days 89 94  
Since 1 July heating degree days 110 107  
Cooling Degree Days 2 1  
Month to date cooling degree days 75 74  
Year to date cooling degree days 696 726  
Growing Degree Days 16 (Base 50)    
Moisture  
Dew Point 55 °F    
Average Humidity 68    
Maximum Humidity 93    
Minimum Humidity 42    
Precipitation  
Precipitation 0.00 in 0.09 in 3.43 in (2015)
Month to date precipitation 0.48 3.02  
Year to date precipitation 29.86 29.73  
Snow  
Snow 0.00 in 0.00 in 0.00 in (2002)
Month to date snowfall 0.0 0.0  
Since 1 July snowfall 0.0 0.0  
Snow Depth 0.00 in    
Sea Level Pressure  
Sea Level Pressure 30.00 in    
Wind  
Wind Speed 3 mph (WSW)    
Max Wind Speed 12 mph    
Max Gust Speed 17 mph    
Visibility 10 miles    
Events      
T = Trace of Precipitation, MM = Missing Value Source: NWS Daily Summary

Daily Weather History Graph

Daily Weather History Graph

Search for Another Location

Airport or City:

Trip Planner

Search our weather history database for the weather conditions in past years. The results will help you decide how hot, cold, wet, or windy it might be!

Date:

Astronomy

Sep. 29, 2014 Rise Set
Actual Time 7:15 AM EDT 7:06 PM EDT
Civil Twilight 6:48 AM EDT 7:33 PM EDT
Nautical Twilight 6:16 AM EDT 8:05 PM EDT
Astronomical Twilight 5:44 AM EDT 8:37 PM EDT
Moon 12:26 PM EDT 10:38 PM EDT
Length of Visible Light 12h 45m
Length of Day
11h 51m
Waxing Crescent, 27% of the Moon is Illuminated
Sep 29
Waxing Crescent
Oct 1
First Quarter
Oct 8
Full
Oct 15
Last Quarter
Oct 23
New

Hourly Weather History & Observations

Time (EDT) Temp. Dew Point Humidity Pressure Visibility Wind Dir Wind Speed Gust Speed Precip Events Conditions
12:51 AM 59.0 °F 55.9 °F 90% 30.06 in 10.0 mi Calm Calm - N/A   Overcast
1:51 AM 57.9 °F 55.0 °F 90% 30.06 in 10.0 mi Calm Calm - N/A   Overcast
2:51 AM 59.0 °F 55.0 °F 87% 30.06 in 10.0 mi Calm Calm - N/A   Mostly Cloudy
3:51 AM 57.9 °F 55.0 °F 90% 30.05 in 10.0 mi Calm Calm - N/A   Mostly Cloudy
4:51 AM 55.9 °F 54.0 °F 93% 30.05 in 10.0 mi Calm Calm - N/A   Mostly Cloudy
5:51 AM 55.0 °F 53.1 °F 93% 30.05 in 10.0 mi Calm Calm - N/A   Mostly Cloudy
6:51 AM 55.0 °F 52.0 °F 89% 30.04 in 10.0 mi Calm Calm - N/A   Partly Cloudy
7:51 AM 54.0 °F 52.0 °F 93% 30.05 in 8.0 mi Calm Calm - N/A   Scattered Clouds
8:51 AM 60.1 °F 55.9 °F 86% 30.05 in 10.0 mi Calm Calm - N/A   Scattered Clouds
9:51 AM 60.1 °F 57.0 °F 90% 30.05 in 10.0 mi South 4.6 mph - N/A   Partly Cloudy
10:51 AM 66.0 °F 59.0 °F 78% 30.04 in 10.0 mi SE 3.5 mph - N/A   Partly Cloudy
11:51 AM 71.1 °F 61.0 °F 70% 30.02 in 10.0 mi South 6.9 mph - N/A   Scattered Clouds
12:51 PM 75.0 °F 59.0 °F 57% 30.00 in 10.0 mi WSW 8.1 mph - N/A   Scattered Clouds
1:51 PM 75.9 °F 55.9 °F 50% 29.97 in 10.0 mi WNW 5.8 mph - N/A   Mostly Cloudy
2:51 PM 78.1 °F 54.0 °F 43% 29.95 in 10.0 mi WNW 6.9 mph - N/A   Scattered Clouds
3:51 PM 79.0 °F 55.9 °F 45% 29.94 in 10.0 mi West 6.9 mph - N/A   Scattered Clouds
4:51 PM 77.0 °F 54.0 °F 45% 29.93 in 10.0 mi NW 8.1 mph - N/A   Scattered Clouds
5:51 PM 77.0 °F 54.0 °F 45% 29.92 in 10.0 mi Variable 3.5 mph - N/A   Scattered Clouds
6:51 PM 75.0 °F 55.9 °F 51% 29.93 in 10.0 mi South 4.6 mph - N/A   Mostly Cloudy
7:51 PM 73.0 °F 55.0 °F 53% 29.93 in 10.0 mi NE 4.6 mph - N/A   Scattered Clouds
8:51 PM 71.1 °F 55.0 °F 57% 29.94 in 10.0 mi NE 3.5 mph - N/A   Partly Cloudy
9:51 PM 66.0 °F 57.0 °F 73% 29.94 in 10.0 mi Calm Calm - N/A   Clear
10:51 PM 66.9 °F 55.9 °F 68% 29.94 in 10.0 mi Calm Calm - N/A   Clear
11:51 PM 60.1 °F 55.9 °F 86% 29.92 in 10.0 mi Calm Calm - N/A   Clear